| time (UTC) | temp C | wind direction | speed KPH | gust KPH | rain 1hr cm | rain 24hr cm | rain mn cm | humidity % | barometer mb |
| 20260502161629 | 17 | 67 | 4.8 | 9.7 | 0.00 | 0.00 | 0.00 | 25 | 1021.0 |
| 20260502160629 | 16 | 94 | 8.0 | 12.9 | 0.00 | 0.00 | 0.00 | 27 | 1021.0 |
| 20260502151646 | 14 | 38 | 6.4 | 12.9 | 0.00 | 0.00 | 0.00 | 32 | 1021.2 |
| 20260502150630 | 13 | 50 | 6.4 | 16.1 | 0.00 | 0.00 | 0.00 | 33 | 1021.0 |
| 20260502130638 | 10 | 44 | 6.4 | 11.3 | 0.00 | 0.00 | 0.00 | 39 | 1020.7 |
| 20260502123612 | 9 | 53 | 8.0 | 14.5 | 0.00 | 0.00 | 0.00 | 39 | 1020.5 |
| 20260502122612 | 9 | 49 | 6.4 | 14.5 | 0.00 | 0.00 | 0.00 | 40 | 1020.5 |
| 20260502121616 | 9 | 34 | 8.0 | 14.5 | 0.00 | 0.00 | 0.00 | 39 | 1020.4 |
| 20260502120621 | 9 | 26 | 6.4 | 12.9 | 0.00 | 0.00 | 0.00 | 40 | 1020.5 |
| 20260502115613 | 9 | 32 | 6.4 | 16.1 | 0.00 | 0.00 | 0.00 | 40 | 1020.4 |
| 20260502114632 | 10 | 26 | 8.0 | 14.5 | 0.00 | 0.00 | 0.00 | 39 | 1020.4 |
| 20260502113635 | 10 | 45 | 6.4 | 12.9 | 0.00 | 0.00 | 0.00 | 40 | 1020.4 |
| 20260502112614 | 9 | 32 | 6.4 | 14.5 | 0.00 | 0.00 | 0.00 | 40 | 1020.5 |
| 20260502111613 | 9 | 22 | 6.4 | 11.3 | 0.00 | 0.00 | 0.00 | 41 | 1020.6 |
| 20260502110633 | 9 | 38 | 8.0 | 12.9 | 0.00 | 0.00 | 0.00 | 41 | 1020.6 |
| 20260502105627 | 9 | 33 | 6.4 | 9.7 | 0.00 | 0.00 | 0.00 | 41 | 1020.6 |
| 20260502104627 | 9 | 39 | 4.8 | 11.3 | 0.00 | 0.00 | 0.00 | 42 | 1020.6 |
| 20260502103627 | 9 | 48 | 6.4 | 9.7 | 0.00 | 0.00 | 0.00 | 43 | 1020.6 |
| 20260502102611 | 9 | 23 | 6.4 | 9.7 | 0.00 | 0.00 | 0.00 | 43 | 1020.5 |
| 20260502101612 | 9 | 27 | 6.4 | 12.9 | 0.00 | 0.00 | 0.00 | 46 | 1020.5 |
| 20260502100611 | 9 | 32 | 6.4 | 9.7 | 0.00 | 0.00 | 0.00 | 50 | 1020.5 |
| 20260502090630 | 9 | 58 | 4.8 | 8.0 | 0.00 | 0.00 | 0.00 | 51 | 1020.5 |
| 20260502070620 | 11 | 44 | 4.8 | 8.0 | 0.00 | 0.00 | 0.00 | 41 | 1020.2 |
| 20260502065634 | 11 | 331 | 4.8 | 6.4 | 0.00 | 0.00 | 0.00 | 45 | 1020.2 |
| 20260502064632 | 11 | 53 | 4.8 | 6.4 | 0.00 | 0.00 | 0.00 | 48 | 1020.3 |
| 20260502063650 | 11 | 53 | 4.8 | 6.4 | 0.00 | 0.00 | 0.00 | 42 | 1020.3 |
| 20260502062634 | 11 | 53 | 4.8 | 6.4 | 0.00 | 0.00 | 0.00 | 45 | 1020.4 |
| 20260502061612 | 11 | 53 | 3.2 | 4.8 | 0.00 | 0.00 | 0.00 | 42 | 1020.3 |
| 20260502060623 | 11 | 53 | 4.8 | 6.4 | 0.00 | 0.00 | 0.00 | 44 | 1020.2 |
| 20260502055615 | 11 | 53 | 3.2 | 4.8 | 0.00 | 0.00 | 0.00 | 43 | 1020.2 |
| 20260502054619 | 12 | 53 | 3.2 | 4.8 | 0.00 | 0.00 | 0.00 | 40 | 1020.2 |
| 20260502053619 | 12 | 53 | 3.2 | 4.8 | 0.00 | 0.00 | 0.00 | 41 | 1020.2 |
| 20260502052620 | 12 | 53 | 3.2 | 6.4 | 0.00 | 0.00 | 0.00 | 41 | 1020.1 |
| 20260502051640 | 12 | 53 | 3.2 | 4.8 | 0.00 | 0.00 | 0.00 | 41 | 1020.2 |
| 20260502050622 | 12 | 53 | 4.8 | 6.4 | 0.00 | 0.00 | 0.00 | 41 | 1020.2 |
| 20260502045613 | 12 | 53 | 4.8 | 6.4 | 0.00 | 0.00 | 0.00 | 40 | 1020.1 |
| 20260502044613 | 12 | 46 | 0.0 | 1.6 | 0.00 | 0.00 | 0.00 | 40 | 1020.1 |
| 20260502043616 | 12 | 46 | 1.6 | 4.8 | 0.00 | 0.00 | 0.00 | 39 | 1020.1 |
| 20260502042637 | 12 | 46 | 4.8 | 6.4 | 0.00 | 0.00 | 0.00 | 41 | 1020.0 |
| 20260502041616 | 12 | 43 | 4.8 | 4.8 | 0.00 | 0.00 | 0.00 | 43 | 1020.0 |
| 20260502040616 | 12 | 43 | 1.6 | 3.2 | 0.00 | 0.00 | 0.00 | 40 | 1019.9 |
| 20260502035651 | 13 | 43 | 0.0 | 4.8 | 0.00 | 0.00 | 0.00 | 40 | 1019.7 |
| 20260502034650 | 13 | 43 | 3.2 | 4.8 | 0.00 | 0.00 | 0.00 | 39 | 1019.6 |
| 20260502033648 | 13 | 43 | 3.2 | 4.8 | 0.00 | 0.00 | 0.00 | 43 | 1019.6 |
| 20260502032627 | 13 | 43 | 1.6 | 6.4 | 0.00 | 0.00 | 0.00 | 41 | 1019.5 |
| 20260502031611 | 13 | 274 | 4.8 | 6.4 | 0.00 | 0.00 | 0.00 | 44 | 1019.4 |
| 20260502030631 | 14 | 274 | 0.0 | 1.6 | 0.00 | 0.00 | 0.00 | 39 | 1019.2 |
| 20260502025622 | 14 | 274 | 1.6 | 3.2 | 0.00 | 0.00 | 0.00 | 39 | 1019.1 |
| 20260502024643 | 15 | 274 | 1.6 | 3.2 | 0.00 | 0.00 | 0.00 | 38 | 1019.0 |
| 20260502023644 | 15 | 274 | 1.6 | 3.2 | 0.00 | 0.00 | 0.00 | 38 | 1018.9 |
| 20260502022643 | 15 | 274 | 3.2 | 6.4 | 0.00 | 0.00 | 0.00 | 36 | 1018.9 |
| 20260502021620 | 16 | 274 | 6.4 | 14.5 | 0.00 | 0.00 | 0.00 | 34 | 1018.8 |
| 20260502020624 | 16 | 263 | 9.7 | 14.5 | 0.00 | 0.00 | 0.00 | 34 | 1018.8 |
| 20260502015616 | 16 | 284 | 11.3 | 16.1 | 0.00 | 0.00 | 0.00 | 34 | 1018.6 |
| 20260502014615 | 16 | 275 | 11.3 | 19.3 | 0.00 | 0.00 | 0.00 | 34 | 1018.6 |
| 20260502013636 | 17 | 262 | 11.3 | 17.7 | 0.00 | 0.00 | 0.00 | 33 | 1018.5 |
| 20260502012618 | 17 | 294 | 16.1 | 22.5 | 0.00 | 0.00 | 0.00 | 33 | 1018.4 |
| 20260502011618 | 18 | 276 | 11.3 | 19.3 | 0.00 | 0.00 | 0.00 | 33 | 1018.4 |
| 20260502010619 | 18 | 283 | 11.3 | 19.3 | 0.00 | 0.00 | 0.00 | 25 | 1018.4 |
| 20260502005615 | 18 | 286 | 16.1 | 24.1 | 0.00 | 0.00 | 0.00 | 24 | 1018.4 |
| 20260502004615 | 18 | 291 | 12.9 | 20.9 | 0.00 | 0.00 | 0.00 | 24 | 1018.4 |
| 20260502003615 | 18 | 284 | 11.3 | 20.9 | 0.00 | 0.00 | 0.00 | 24 | 1018.3 |
| 20260502002619 | 18 | 284 | 11.3 | 20.9 | 0.00 | 0.00 | 0.00 | 24 | 1018.4 |
| 20260502001619 | 18 | 305 | 11.3 | 20.9 | 0.00 | 0.00 | 0.00 | 24 | 1018.6 |
| 20260502000621 | 18 | 318 | 11.3 | 17.7 | 0.00 | 0.00 | 0.00 | 24 | 1018.5 |
| 20260501235615 | 18 | 286 | 14.5 | 20.9 | 0.00 | 0.00 | 0.00 | 25 | 1018.6 |
| 20260501234619 | 18 | 286 | 12.9 | 25.7 | 0.00 | 0.00 | 0.00 | 27 | 1018.6 |
| 20260501233618 | 18 | 308 | 17.7 | 30.6 | 0.00 | 0.00 | 0.00 | 25 | 1018.6 |
| 20260501232619 | 18 | 289 | 16.1 | 27.4 | 0.00 | 0.00 | 0.00 | 25 | 1018.6 |
| 20260501231623 | 18 | 291 | 16.1 | 24.1 | 0.00 | 0.00 | 0.00 | 26 | 1018.6 |
| 20260501230623 | 18 | 272 | 16.1 | 27.4 | 0.00 | 0.00 | 0.00 | 26 | 1018.8 |
| 20260501225616 | 18 | 277 | 20.9 | 30.6 | 0.00 | 0.00 | 0.00 | 26 | 1018.8 |
| 20260501224621 | 18 | 294 | 17.7 | 25.7 | 0.00 | 0.00 | 0.00 | 25 | 1018.9 |
| 20260501223621 | 18 | 311 | 19.3 | 32.2 | 0.00 | 0.00 | 0.00 | 25 | 1018.9 |
| 20260501222620 | 17 | 325 | 19.3 | 25.7 | 0.00 | 0.00 | 0.00 | 27 | 1019.1 |
| 20260501221639 | 17 | 286 | 17.7 | 30.6 | 0.00 | 0.00 | 0.00 | 25 | 1019.2 |
| 20260501220621 | 17 | 294 | 20.9 | 32.2 | 0.00 | 0.00 | 0.00 | 27 | 1019.2 |
| 20260501215614 | 17 | 288 | 19.3 | 27.4 | 0.00 | 0.00 | 0.00 | 28 | 1019.4 |
| 20260501214615 | 17 | 271 | 22.5 | 37.0 | 0.00 | 0.00 | 0.00 | 28 | 1019.4 |
| 20260501213639 | 17 | 293 | 20.9 | 30.6 | 0.00 | 0.00 | 0.00 | 28 | 1019.4 |
| 20260501212638 | 17 | 280 | 19.3 | 32.2 | 0.00 | 0.00 | 0.00 | 28 | 1019.5 |
| 20260501211617 | 17 | 278 | 25.7 | 33.8 | 0.00 | 0.00 | 0.00 | 27 | 1019.6 |
| 20260501210637 | 17 | 279 | 20.9 | 32.2 | 0.00 | 0.00 | 0.00 | 27 | 1019.6 |
| 20260501205614 | 17 | 260 | 20.9 | 29.0 | 0.00 | 0.00 | 0.00 | 28 | 1019.7 |
| 20260501204634 | 17 | 266 | 22.5 | 32.2 | 0.00 | 0.00 | 0.00 | 28 | 1019.7 |
| 20260501203615 | 17 | 273 | 20.9 | 30.6 | 0.00 | 0.00 | 0.00 | 28 | 1019.7 |
| 20260501202612 | 17 | 248 | 17.7 | 25.7 | 0.00 | 0.00 | 0.00 | 29 | 1019.8 |
| 20260501201616 | 17 | 263 | 16.1 | 27.4 | 0.00 | 0.00 | 0.00 | 29 | 1019.7 |
| 20260501200615 | 16 | 252 | 17.7 | 29.0 | 0.00 | 0.00 | 0.00 | 28 | 1019.7 |
| 20260501195627 | 17 | 229 | 12.9 | 27.4 | 0.00 | 0.00 | 0.00 | 28 | 1019.7 |
| 20260501194631 | 17 | 288 | 16.1 | 27.4 | 0.00 | 0.00 | 0.00 | 29 | 1019.9 |
| 20260501193628 | 17 | 247 | 12.9 | 19.3 | 0.00 | 0.00 | 0.00 | 29 | 1020.0 |
| 20260501192649 | 16 | 311 | 6.4 | 22.5 | 0.00 | 0.00 | 0.00 | 20 | 1020.1 |
| 20260501191627 | 17 | 288 | 11.3 | 19.3 | 0.00 | 0.00 | 0.00 | 20 | 1020.2 |
| 20260501190631 | 17 | 32 | 8.0 | 12.9 | 0.00 | 0.00 | 0.00 | 23 | 1020.3 |
| 20260501185639 | 16 | 98 | 6.4 | 19.3 | 0.00 | 0.00 | 0.00 | 21 | 1020.5 |
| 20260501184617 | 17 | 77 | 6.4 | 16.1 | 0.00 | 0.00 | 0.00 | 22 | 1020.5 |
| 20260501183617 | 16 | 36 | 6.4 | 19.3 | 0.00 | 0.00 | 0.00 | 21 | 1020.7 |
| 20260501182620 | 16 | 63 | 6.4 | 17.7 | 0.00 | 0.00 | 0.00 | 23 | 1020.8 |
| 20260501181621 | 16 | 69 | 12.9 | 20.9 | 0.00 | 0.00 | 0.00 | 24 | 1020.8 |
| 20260501180629 | 16 | 80 | 4.8 | 12.9 | 0.00 | 0.00 | 0.00 | 24 | 1020.8 |
| 20260501175620 | 16 | 101 | 16.1 | 24.1 | 0.00 | 0.00 | 0.00 | 26 | 1020.9 |
| 20260501174624 | 15 | 86 | 12.9 | 24.1 | 0.00 | 0.00 | 0.00 | 27 | 1020.9 |
| 20260501173624 | 15 | 43 | 8.0 | 17.7 | 0.00 | 0.00 | 0.00 | 27 | 1020.9 |
| 20260501171623 | 15 | 70 | 11.3 | 22.5 | 0.00 | 0.00 | 0.00 | 26 | 1021.0 |
| 20260501170628 | 15 | 78 | 11.3 | 22.5 | 0.00 | 0.00 | 0.00 | 27 | 1021.0 |
| 20260501165621 | 15 | 94 | 12.9 | 30.6 | 0.00 | 0.00 | 0.00 | 27 | 1021.2 |
| 20260501164621 | 15 | 44 | 16.1 | 30.6 | 0.00 | 0.00 | 0.00 | 27 | 1021.2 |
| 20260501163625 | 14 | 50 | 12.9 | 27.4 | 0.00 | 0.00 | 0.00 | 28 | 1021.2 |
| 20260501162625 | 15 | 101 | 8.0 | 19.3 | 0.00 | 0.00 | 0.00 | 28 | 1021.1 |